Wind_Speed
21 21 20 17 15 13 11 8 7 5 3 2 1 2 5 11 13 13 10 9 7 8 8 8 7 8 8 8 9 10 11 13 14 15 15 15 14 13 12 12 14 10 13
24 22 22 18 15 12 10 8 5 4 3 3 3 5 10 13 15 11 10 10 9 9 9 10 8 7 7 7 9 10 12 13 14 15 16 16 16 14 11 10 9 12 14
25 22 22 17 16 13 11 10 8 6 5 7 8 10 15 16 12 11 11 12 11 11 11 12 10 9 8 9 10 12 13 13 13 14 16 12 12 15 13 11 12 14 16
23 22 21 19 17 15 13 10 9 8 7 9 12 15 15 15 10 10 11 13 14 15 15 14 12 11 10 10 11 12 13 13 14 15 12 11 10 12 15 14 13 12 13
22 22 20 20 18 15 13 13 10 6 7 12 15 17 17 14 8 10 10 12 14 15 15 14 12 12 12 12 12 13 12 13 12 13 11 13 9 8 9 8 6 6 8
21 20 22 20 18 16 15 12 7 5 8 13 15 16 14 14 10 8 9 11 13 14 14 13 12 12 12 11 11 12 12 12 13 10 10 9 5 7 6 5 5 5 7
21 19 22 20 18 16 14 11 8 7 8 10 14 14 13 13 9 8 9 10 11 12 12 12 11 11 10 9 9 9 10 10 9 10 8 7 7 7 9 8 8 7 7
20 19 19 19 18 16 14 11 8 9 9 9 11 13 13 12 10 10 8 7 7 8 9 9 9 8 7 6 7 7 7 8 9 8 8 6 7 8 9 9 9 9 9
18 18 18 18 16 15 12 11 8 9 9 10 10 12 12 12 9 9 9 6 5 5 5 5 5 4 4 4 4 5 6 6 6 5 7 4 7 7 9 9 9 10 9
17 16 17 15 15 14 13 10 7 8 9 10 9 8 7 5 5 6 6 5 4 3 3 2 2 2 2 1 1 2 3 3 3 4 4 4 7 9 10 10 11 11 11
16 17 18 15 15 14 11 10 7 8 8 9 9 8 5 5 5 5 6 5 5 4 4 3 2 2 2 3 3 3 4 4 5 5 5 8 9 9 9 10 11 12 11
17 18 18 16 14 14 13 10 8 8 7 8 8 8 7 6 6 7 6 7 6 5 5 4 3 3 4 5 6 5 5 5 6 7 6 8 9 10 10 10 11 11 11
18 15 16 18 14 13 12 12 9 8 9 9 8 7 7 6 6 7 7 7 7 6 6 5 5 6 7 7 8 7 7 7 7 9 9 9 10 11 12 11 11 11 11
20 20 18 16 17 14 12 12 10 10 10 9 8 7 6 6 7 7 7 8 8 7 7 7 7 8 9 10 10 9 10 10 10 11 11 10 11 12 12 14 12 12 12
17 17 16 16 16 16 15 12 11 11 12 10 10 9 8 8 8 7 8 9 9 9 8 8 8 7 8 9 10 10 10 10 11 12 12 11 12 12 12 13 15 14 13
15 15 14 14 14 16 16 14 11 11 11 12 11 9 9 9 9 9 8 9 9 9 9 10 9 9 9 10 10 11 10 11 11 12 13 13 13 14 13 13 14 14 15
15 15 15 14 13 14 15 13 11 11 11 10 9 9 8 8 9 9 9 9 9 10 11 12 12 12 13 13 13 12 12 12 13 14 16 16 17 16 16 15 14 15 14
18 18 15 15 14 14 13 12 11 11 10 10 10 9 9 8 8 9 10 9 10 11 12 13 13 14 15 15 15 13 14 16 16 17 19 19 20 20 21 19 18 17 17
19 18 19 18 17 15 14 15 14 14 14 13 13 13 11 11 11 13 13 13 13 14 15 16 16 17 16 15 16 18 18 20 21 21 21 21 23 23 24 25 22 20 20
19 19 20 20 20 18 17 18 17 17 19 18 17 16 14 15 15 16 17 17 17 18 20 20 20 19 21 21 19 24 24 24 24 24 23 24 25 26 25 24 24 23 22
17 17 17 17 17 18 20 20 20 19 19 19 19 18 18 18 20 20 20 20 21 22 22 22 22 23 23 21 24 25 21 21 24 25 22 20 17 15 15 16 18 19 20
16 18 19 19 18 18 19 19 19 19 19 19 20 21 22 22 23 23 24 24 24 26 25 25 25 26 27 25 25 21 19 18 19 18 12 12 17 19 18 17 15 15 16
18 17 19 20 22 23 23 23 22 22 22 22 21 22 24 25 26 27 27 28 28 29 30 28 27 27 27 27 28 22 16 16 11 13 15 17 19 16 14 16 19 18 18
17 20 20 20 22 24 24 24 23 22 21 22 22 23 25 26 26 27 28 28 28 27 27 26 27 29 29 28 28 28 28 26 17 15 14 16 17 17 14 15 18 22 21
16 23 22 21 20 21 21 20 19 20 20 21 21 22 23 24 25 26 27 27 27 28 30 31 32 31 30 30 28 28 26 26 22 21 17 18 18 15 18 18 18 20 23
23 23 24 21 19 19 19 18 19 19 20 21 22 23 24 25 25 24 24 24 24 24 24 24 24 24 25 26 26 25 26 21 20 20 20 18 17 16 15 16 16 21 17
Wind_Direction
167 164 164 172 172 174 179 173 170 168 173 179 120 71 89 115 112 109 94 90 99 118 143 125 117 98 83 67 52 50 55 67 70 71 77 80 81 72 69 72 69 47 41
163 162 168 172 169 173 178 164 172 171 181 179 157 104 114 119 112 111 92 83 85 97 108 121 124 106 89 69 63 63 71 73 72 73 81 72 69 55 54 66 60 50 43
160 162 162 167 170 169 163 172 172 161 133 118 118 116 126 121 114 104 82 73 77 93 107 115 116 109 93 78 73 75 77 75 74 78 78 76 62 53 53 66 64 59 45
157 160 163 165 162 165 171 175 159 146 128 120 120 128 129 123 112 98 79 74 78 89 107 111 111 106 96 86 84 86 78 80 75 78 74 74 57 54 58 66 58 58 43
157 156 166 162 160 166 164 161 156 138 133 132 127 130 124 124 117 105 85 80 86 92 102 108 109 106 99 92 90 89 85 80 81 72 74 74 74 53 69 75 65 43 34
157 156 164 159 162 168 165 161 149 128 136 136 130 135 130 130 130 110 97 92 95 98 104 109 112 109 102 98 99 92 84 76 71 77 77 75 68 45 41 31 13 348 339
157 160 160 162 171 172 164 161 141 123 131 146 141 142 138 127 138 138 125 111 108 109 114 120 120 115 110 106 103 97 85 75 73 70 70 64 40 24 33 27 12 359 342
158 159 164 168 178 173 166 160 142 120 122 141 126 141 147 143 147 131 130 121 116 123 124 128 129 126 119 109 98 90 76 62 54 53 57 55 45 45 28 21 18 11 5
163 158 163 175 183 178 173 167 146 134 139 155 153 150 149 150 157 147 140 135 126 125 121 112 109 106 88 68 55 51 47 51 49 35 38 40 22 34 22 17 16 17 15
167 166 165 171 173 179 180 173 161 151 155 167 175 160 160 159 161 144 149 157 153 155 158 147 131 102 80 44 18 9 25 30 14 11 10 347 355 12 11 10 8 11 12
173 178 181 173 173 175 177 188 181 168 168 175 183 188 186 193 191 182 188 187 192 194 197 200 221 301 322 317 311 316 323 330 328 335 338 338 342 351 352 358 1 4 5
176 188 189 178 182 182 189 196 191 191 178 182 187 191 196 205 214 216 219 220 219 219 217 224 243 269 285 292 298 299 302 298 302 306 315 326 329 331 335 343 347 351 353
181 184 194 186 191 192 193 192 195 194 193 191 190 196 209 217 222 222 226 226 228 230 233 240 252 261 269 277 283 288 292 295 293 296 302 314 318 318 319 328 329 331 338
199 203 210 206 208 198 197 199 206 202 204 206 210 216 221 228 229 231 233 236 238 238 235 241 250 263 269 274 281 288 293 294 296 295 297 303 308 309 310 312 313 318 321
209 206 210 212 208 205 206 203 208 206 208 214 222 226 229 230 234 238 242 244 242 242 241 247 258 269 275 277 284 288 292 293 298 298 299 300 300 303 301 299 302 308 309
207 202 204 209 210 213 213 212 210 208 209 215 223 229 231 234 233 237 245 247 249 249 249 254 260 268 271 277 280 284 288 291 294 297 300 299 297 298 298 294 293 294 294
209 213 209 213 210 208 209 212 212 211 209 213 221 227 231 235 238 239 242 248 252 254 255 260 264 268 273 278 280 280 283 285 287 290 292 292 295 296 293 290 289 289 284
210 216 217 222 217 212 209 213 217 217 216 218 223 230 233 238 243 248 253 256 256 258 260 265 269 273 277 279 280 277 279 283 284 287 288 291 293 293 292 287 285 283 281
213 218 221 229 227 223 221 223 226 231 231 231 234 239 244 249 253 258 261 260 259 261 264 267 270 273 274 274 278 280 279 281 286 285 287 288 291 290 286 287 280 276 276
218 221 225 228 230 229 227 229 234 237 241 241 242 247 250 254 257 259 263 264 263 265 266 268 271 271 275 275 274 281 283 284 287 284 287 287 286 287 285 279 279 276 271
217 218 220 226 228 228 229 231 235 239 244 245 247 248 252 256 260 261 262 264 265 266 270 271 269 273 274 275 279 284 287 287 285 286 285 286 285 289 293 291 284 279 277
232 231 229 230 231 233 236 239 240 243 244 248 249 250 253 257 260 263 266 269 271 273 274 273 272 274 275 274 273 276 282 285 286 287 279 277 285 291 291 293 289 288 284
235 235 235 236 236 235 237 241 245 249 254 257 259 258 258 260 262 264 267 269 271 271 272 271 270 271 272 274 275 265 274 274 271 272 280 281 283 284 283 289 290 286 280
243 242 245 244 243 239 238 240 243 248 253 258 260 261 262 263 264 265 267 269 269 269 269 270 271 271 270 265 269 272 268 266 266 274 267 279 282 283 282 281 282 282 282
255 244 241 245 240 235 234 237 242 248 255 259 261 263 264 265 266 268 268 268 269 270 271 273 273 270 268 267 265 265 266 266 260 263 271 276 274 275 283 281 283 282 282
244 243 237 229 227 229 232 238 244 250 255 259 261 262 264 267 268 268 268 268 268 269 270 272 273 272 271 270 264 259 257 258 255 255 262 274 275 276 272 267 284 286 289
Height
1548 1551 1553 1557 1559 1561 1562 1563 1564 1564 1565 1565 1565 1565 1564 1565 1565 1565 1566 1565 1565 1564 1564 1565 1567 1567 1568 1567 1566 1566 1565 1564 1563 1563 1562 1562 1562 1562 1562 1561 1562 1561 1559
1548 1551 1554 1557 1560 1562 1564 1565 1565 1565 1565 1566 1566 1566 1566 1567 1567 1568 1568 1567 1566 1565 1565 1566 1568 1569 1569 1569 1568 1567 1567 1566 1566 1565 1564 1565 1565 1564 1563 1563 1563 1562 1561
1548 1552 1554 1558 1561 1563 1564 1565 1566 1566 1566 1566 1566 1567 1568 1569 1569 1569 1569 1568 1567 1566 1567 1568 1569 1570 1570 1570 1569 1569 1569 1568 1568 1567 1567 1569 1567 1566 1565 1564 1564 1564 1563
1549 1552 1556 1558 1561 1563 1565 1566 1566 1567 1567 1567 1567 1568 1570 1571 1571 1571 1571 1570 1569 1568 1569 1570 1571 1571 1571 1571 1571 1571 1570 1570 1570 1569 1572 1572 1571 1569 1568 1567 1566 1565 1565
1550 1553 1556 1558 1561 1564 1565 1566 1567 1568 1569 1569 1569 1570 1571 1573 1573 1573 1573 1572 1571 1571 1571 1572 1573 1573 1572 1572 1573 1572 1572 1572 1572 1573 1573 1572 1573 1570 1570 1569 1568 1567 1566
1552 1555 1555 1559 1562 1564 1566 1567 1568 1569 1570 1570 1570 1572 1573 1574 1574 1574 1574 1574 1574 1573 1574 1574 1575 1574 1574 1574 1574 1574 1574 1574 1573 1573 1574 1573 1572 1571 1570 1570 1569 1568 1567
1553 1556 1556 1560 1562 1564 1566 1569 1569 1570 1571 1571 1571 1572 1574 1575 1575 1575 1575 1575 1575 1575 1576 1576 1576 1576 1576 1576 1576 1575 1575 1575 1575 1574 1574 1574 1572 1572 1571 1570 1569 1568 1567
1554 1556 1558 1561 1563 1565 1567 1569 1570 1571 1571 1573 1574 1574 1575 1577 1576 1576 1576 1577 1577 1577 1577 1577 1577 1577 1577 1577 1577 1577 1577 1576 1576 1576 1575 1575 1573 1572 1572 1571 1569 1568 1567
1556 1557 1561 1562 1564 1566 1568 1569 1571 1571 1572 1573 1574 1576 1576 1576 1576 1576 1577 1578 1578 1579 1579 1579 1579 1579 1579 1579 1579 1579 1578 1578 1578 1577 1576 1577 1574 1574 1573 1571 1570 1568 1567
1557 1559 1561 1563 1564 1566 1568 1570 1571 1572 1573 1573 1575 1576 1577 1577 1577 1578 1578 1579 1579 1579 1579 1579 1579 1579 1579 1579 1579 1579 1578 1578 1578 1577 1577 1576 1575 1574 1573 1572 1571 1569 1568
1557 1558 1560 1564 1566 1568 1569 1570 1571 1572 1573 1574 1575 1576 1577 1577 1577 1578 1578 1579 1580 1580 1579 1579 1579 1579 1579 1579 1579 1579 1579 1579 1578 1578 1577 1576 1575 1574 1573 1572 1571 1569 1568
1555 1557 1559 1562 1565 1567 1568 1569 1571 1572 1573 1574 1575 1576 1577 1577 1577 1578 1579 1579 1580 1580 1579 1579 1579 1579 1579 1579 1579 1578 1578 1578 1577 1577 1577 1576 1575 1574 1572 1571 1571 1569 1568
1555 1558 1559 1562 1564 1566 1567 1569 1571 1571 1573 1573 1574 1575 1576 1576 1577 1577 1578 1578 1579 1579 1578 1578 1578 1578 1578 1578 1578 1577 1577 1576 1576 1575 1575 1575 1573 1572 1571 1570 1570 1569 1567
1552 1554 1557 1559 1562 1564 1566 1566 1570 1570 1571 1573 1573 1574 1575 1575 1576 1576 1577 1577 1577 1577 1577 1577 1577 1577 1576 1576 1576 1576 1575 1574 1574 1573 1573 1572 1572 1571 1570 1568 1568 1567 1566
1551 1553 1556 1557 1560 1561 1564 1566 1567 1568 1569 1571 1571 1572 1573 1573 1574 1575 1575 1575 1575 1576 1576 1576 1575 1575 1575 1574 1574 1574 1573 1572 1572 1571 1571 1570 1569 1569 1568 1567 1566 1565 1564
1549 1551 1554 1555 1557 1560 1562 1564 1565 1566 1567 1568 1569 1570 1570 1571 1572 1573 1573 1573 1574 1574 1574 1574 1574 1573 1573 1573 1573 1572 1571 1570 1570 1569 1568 1567 1566 1566 1566 1565 1564 1563 1563
1548 1550 1552 1554 1556 1557 1559 1561 1563 1564 1565 1566 1567 1568 1569 1569 1570 1570 1571 1572 1572 1572 1572 1572 1572 1571 1571 1570 1570 1570 1569 1568 1567 1566 1565 1564 1563 1563 1563 1562 1561 1561 1560
1545 1547 1551 1552 1553 1555 1557 1559 1561 1562 1563 1564 1565 1566 1567 1568 1568 1569 1569 1570 1570 1570 1569 1569 1569 1569 1568 1568 1568 1568 1566 1565 1564 1563 1562 1561 1560 1559 1559 1558 1558 1557 1557
1543 1545 1547 1549 1552 1553 1555 1557 1558 1560 1560 1561 1562 1563 1565 1566 1566 1566 1566 1567 1567 1567 1566 1566 1566 1566 1566 1566 1565 1564 1563 1562 1561 1560 1559 1558 1557 1555 1554 1553 1553 1553 1552
1540 1541 1544 1545 1548 1550 1552 1553 1555 1556 1557 1559 1559 1561 1562 1562 1563 1563 1563 1563 1563 1563 1563 1563 1562 1562 1562 1561 1560 1559 1558 1557 1556 1555 1555 1554 1552 1550 1549 1548 1547 1547 1547
1537 1538 1540 1542 1545 1547 1549 1549 1551 1553 1554 1555 1556 1557 1558 1559 1559 1559 1559 1559 1558 1558 1558 1558 1558 1557 1557 1556 1555 1554 1553 1551 1551 1550 1549 1548 1547 1546 1544 1543 1542 1542 1542
1534 1536 1538 1539 1541 1544 1545 1547 1548 1549 1550 1551 1551 1553 1553 1554 1554 1554 1554 1554 1554 1553 1553 1553 1552 1551 1551 1551 1550 1549 1548 1549 1547 1545 1544 1544 1544 1543 1541 1540 1539 1539 1538
1531 1532 1534 1536 1538 1539 1541 1542 1544 1545 1546 1546 1547 1548 1548 1549 1549 1549 1549 1548 1548 1547 1547 1547 1546 1546 1545 1545 1544 1545 1544 1543 1542 1541 1541 1541 1540 1538 1537 1536 1536 1535 1533
1526 1528 1530 1531 1533 1534 1536 1537 1539 1541 1541 1541 1541 1542 1543 1543 1543 1543 1542 1542 1541 1541 1541 1540 1540 1539 1539 1538 1538 1538 1538 1537 1537 1538 1537 1537 1535 1534 1532 1532 1531 1531 1529
1523 1524 1525 1526 1528 1529 1531 1533 1535 1536 1537 1536 1537 1537 1537 1537 1537 1537 1536 1536 1535 1535 1535 1534 1533 1532 1532 1531 1530 1531 1531 1531 1531 1531 1530 1531 1531 1531 1529 1528 1527 1526 1525
1517 1520 1521 1522 1524 1526 1528 1529 1531 1531 1532 1532 1532 1532 1532 1531 1531 1531 1531 1530 1529 1529 1528 1528 1527 1526 1525 1524 1524 1525 1525 1525 1524 1525 1524 1525 1526 1527 1524 1524 1523 1521 1520